Location: Newark
(12.4436°N, 0.6167°W)
Time: 11:19:48
(UTC+00:00)

Transit 2A - Pass Details

Date: 09 December 2019
Orbit: 601 x 957 km, 66.7° (Epoch: 17 January)

Event Time Altitude Azimuth Distance (km) Brightness Sun altitude
Rises 07:13:20 0° 236° (SW) 3,294 9.0 12.7°
Reaches altitude 10° 07:16:55 10° 259° (W) 2,281 8.1 13.5°
Maximum altitude 07:19:45 15° 292° (WNW) 1,908 7.5 14.1°
Drops below altitude 10° 07:22:28 10° 326° (NNW) 2,154 7.9 14.7°
Sets 07:25:43 0° 351° (N) 3,000 8.7 15.4°
